Regional Weather Roundup
Issued by NWS

Home | Current Version | Previous Version | Graphics & Text | Print | Product List | Glossary Off
Versions: 1 2 3 4 5 6 7 8 9 10 11 12 13 14 15 16 17 18 19 20 21 22 23 24 25 26 27 28 29 30 31 32 33 34 35 36 37 38 39 40 41 42 43 44 45 46 47 48 49 50

000
ASUS43 KDMX 240907
RWRIA

WEATHER ROUNDUP FOR IOWA
NATIONAL WEATHER SERVICE DES MOINES IA
400 AM CDT SUN MAY 24 2015

NOTE: "FAIR" INDICATES FEW OR NO CLOUDS BELOW 12,000 FEET WITH NO
SIGNIFICANT WEATHER AND/OR OBSTRUCTIONS TO VISIBILITY.

* - THESE STATIONS ARE NOT NWS STATIONS...THUS NOT UNDER NWS
QUALITY CONTROL.  THEY ALSO DO NOT REPORT WEATHER SUCH
AS PRECIPITATION OR FOG.

IAZ001>003-012>014-020>022-031>034-043>046-241000-
   NORTHWEST IOWA

CITY           SKY/WX    TMP DP  RH WIND       PRES   REMARKS
CARROLL *      CLOUDY    59  59 100 CALM      30.02F
CHEROKEE *     CLOUDY    59  59 100 E8        30.01F
DENISON *      CLOUDY    59  59 100 E9        29.98F
LE MARS *      CLOUDY    61  59  94 E7G13     30.00F
ORANGE CITY *  DRIZZLE   57  57 100 E8        30.01F
SHELDON *      CLOUDY    59 N/A N/A E9        30.02F
SIOUX CITY     LGT RAIN  61  58  90 E9        29.97F
SPENCER        LGT RAIN  60  58  92 E8        30.05F
STORM LAKE *   CLOUDY    59  57  94 E9        30.03F
$$

IAZ055>058-069>071-079>083-090>094-241000-
   SOUTHWEST IOWA

CITY           SKY/WX    TMP DP  RH WIND       PRES   REMARKS
ATLANTIC *     DRIZZLE   59  59 100 NE6       29.97F
AUDUBON *      CLOUDY    59  55  88 CALM      30.01F
CLARINDA *     CLOUDY    61  61 100 E6        29.94S
COUNCIL BLFS * LGT RAIN  59  59 100 NE10      29.94F
CRESTON *      CLOUDY    59  59 100 SE16G23   29.96F
HARLAN  *      CLOUDY    59  59 100 E9        30.00F FOG
LAMONI         RAIN      61  58  90 E8        29.98F FOG
RED OAK *      CLOUDY    61  61 100 NE6       29.93F
SHENANDOAH *   DRIZZLE   61  61 100 NE5G12    29.92F
$$

IAZ047>049-059>061-072>074-084-241000-
   CENTRAL IOWA

CITY           SKY/WX    TMP DP  RH WIND       PRES   REMARKS
AMES           LGT RAIN  60  56  86 SE7       30.04F
ANKENY *       CLOUDY    61  59  94 E8        30.02F
CHARITON *       N/A     59  59 100 SE12      30.01F
DES MOINES     LGT RAIN  62  58  86 SE9       30.01F
GRINNELL*      RAIN      61  55  82 S12       30.08F
KNOXVILLE *    LGT RAIN  59  57  94 SE8       30.02F
MARSHALLTOWN   LGT RAIN  62  54  74 SE10      30.06F
PELLA *        LGT RAIN  59  59 100 SE6       30.06F
PERRY *        DRIZZLE   59  57  94 E6        30.01F
$$

IAZ004>006-015-016-023>025-035-036-241000-
   NORTH CENTRAL IOWA

CITY           SKY/WX    TMP DP  RH WIND       PRES   REMARKS
ALGONA *       LGT RAIN  59  59 100 E6        30.08F
CLARION *      LGT RAIN  61  57  88 SE7G15    30.05F
ESTHERVILLE    LGT RAIN  59  56  89 SE9       30.06F
FORT DODGE *   CLOUDY    61  55  82 CALM      30.05F
MASON CITY     LGT RAIN  63  52  67 E7        30.10F
FOREST CITY *  RAIN      59  54  82 SE5       30.09F
IOWA FALLS *   CLOUDY    64  54  68 SE8       30.07F
$$

IAZ007>011-017>019-026>030-037>042-050>054-066-241000-
   NORTHEAST IOWA

CITY           SKY/WX    TMP DP  RH WIND       PRES   REMARKS
CEDAR RAPIDS   LGT RAIN  65  52  62 S15G23    30.11S
CHARLES CITY * CLOUDY    63  50  63 E7        30.11F
CLINTON *      CLOUDY    64  50  59 S18       30.19R
DECORAH *      CLOUDY    63  50  63 SE5       30.12F
DUBUQUE        CLOUDY    62  51  67 SE8       30.15F
MONTICELLO *   CLOUDY    63  52  67 SE6       30.13S
OELWEIN *      CLOUDY    61  54  77 SE8G20    30.12F HAZE
WATERLOO       CLOUDY    59  57  93 SW6       30.10S
$$

IAZ064-065-067-068-078-241000-
   EAST CENTRAL IOWA

CITY           SKY/WX    TMP DP  RH WIND       PRES   REMARKS
DAVENPORT      LGT RAIN  64  53  67 S5        30.15S
IOWA CITY      LGT RAIN  62  54  74 S7        30.13S
MT. PLEASANT * DRIZZLE   63  55  77 S9        30.12S
MUSCATINE *    LGT RAIN  63  57  82 N3        30.13F
QUAD CITIES    CLOUDY    64  51  62 SE7       30.14R
$$

IAZ062-063-075>077-085>089-095>099-241000-
   SOUTHEAST IOWA

CITY           SKY/WX    TMP DP  RH WIND       PRES   REMARKS
BURLINGTON     CLOUDY    67  52  58 S9        30.12S
FAIRFIELD *    LGT RAIN  61  57  88 S8        30.10F
FORT MADISON * RAIN      61  57  88 S6        30.13S
KEOKUK *       RAIN      61  59  94 E3        30.09F
OSKALOOSA *    RAIN      59  57  94 SE7       30.07F
CENTERVILLE *  LGT RAIN  57  57 100 E12       30.04F
OTTUMWA        LGT RAIN  59  58  96 SE9       30.06F
WASHINGTON *   CLOUDY    61  57  88 SE5       30.12F
$$

ABBREVIATIONS USED IN REMARKS
   TC - TEMPERATURES IN CELSIUS
  WCI - WIND CHILL INDEX
   HX - HEAT INDEX
  VSB - VISIBILITY
$$



USA.gov is the U.S. government's official web portal to all federal, state and local government web resources and services.